STARLINK-36915, 68061

Orbit data source: Space-Track

STARLINK-36915, 68061 is a payload satellite owned by SpaceX/Seattle (US) in LEO that was launched on Mon, 02 Mar 2026 UTC via an FALCON 9 launch vehicle from the Air Force Eastern Test Range (AFETR). Payload-class satellites include a variety of spacecraft equipped with specific instruments for various scientific and technological missions. These include communications satellites like Starlink; space stations such as the ISS; scientific satellites like the Hubble; Earth observation satellites from companies like Planet Labs, Umbra, and HawkEye 360; GPS; miniature CubeSats for education and research; and military/defense satellites.

Loading next visibility...
Identifier
68061, 2026-041X
Orbit
LEO
Country
Flag of USUS
Related business
Manufacturer
SpaceX/Seattle
Mission
Operational Commercial Communications
Bus & Motor
STARLINK V2MO, Unknown motor
Mass
575 kg wet, ~530 kg dry
Launch date (UTC)
2026-03-02 (2 months ago)
Launch vehicle
FALCON 9
Launch site
Air Force Eastern Test Range (AFETR)
Object type
Payload
Rocket body
Debris
Shape & HBR
Box + 2 Pan, 17.7 m
Radar Cross Section
36.964 m²

Expand to show TLE details & history
Last TLE update: 7 hours ago

TLE from 7 hours ago
0 STARLINK-36915
1 68061U 26041X   26119.14524890  .00051631  00000-0  13273-2 0  9990
2 68061  53.1599 174.7702 0001379  94.9821 265.1341 15.38796278  9126
Epoch: 2026-04-29T03:29Z
TLE epoch observation values (Epoch: 2026-04-29T03:29:09.504Z)
Latitude
-0.00004°
Longitude
-94.62984°
Altitude
450.651 km
Speed
7.643 km/s
True Right ascension
11h 39m 04s
True Declination
0° 00' 00"
Sunlit
Object was in full shadow at epoch
Visualization orbit readout
Latitude
Unknown
Longitude
Unknown
Altitude
Unknown
Speed
Unknown
Apparent Right ascension
Unknown
Apparent Declination
Unknown
Sunlit
N/A
Visualization observer readout
Local Sidereal Time
18:19:40
Azimuth
Unknown
Elevation
Unknown
Doppler factor
Unknown
Orbital elements
Apogee altitude
450.867 km
Perigee altitude
448.983 km
Semi-major axis
6,828.062 km
Eccentricity
0.00014
Inclination
53.1599°
RAAN
174.7702°
Arg. of periapsis
94.9821°
True anomaly
265.11836°
Mean anomaly
265.1341°
Eccentric anomaly
265.12623°
Mean motion
3.84678 °/min
Orbital period
93.58 mins
BSTAR
0.0013273
Loading maneuver chart data...
Computing Atmospheric mass density...
Loading historical data...
Loading historical data...
Loading historical data...
Loading historical data...
Loading historical data...
Loading historical data...
Loading historical data...

Documentation

Showing up to 5 results
|